Hourly Data Report for October 29, 2015

All times are specified in Local Standard Time (LST). Add 1 hour to adjust for Daylight Saving Time where and when it is observed.

RANKIN INLET A
NUNAVUT

62°48'38.000" N
92°06'53.000" W
32.30 m
2303405
71083
YRT

Download Data

Hourly Data (October 2015)
Hourly Data Report for October 29, 2015
Temp Definition
°C
Dew Point Temp Definition
°C
Rel Hum Definition
%
Wind Dir Definition
10's deg

Wind Spd Definition
km/h
Visibility Definition
km
Stn Press Definition
kPa
Hmdx Definition


Wind Chill Definition


Weather Definition


TIME
00:00 Legend Double Dagger -10.9 -12.7 87 35 24 24.1 100.67   -20 Snow
01:00 Legend Double Dagger -10.4 -12.0 88 35 29 16.1 100.63   -20 Snow
02:00 Legend Double Dagger -10.5 -12.1 88 34 28 16.1 100.63   -20 Snow
03:00 Legend Double Dagger -10.9 -12.7 87 34 30 16.1 100.63   -21 Snow
04:00 Legend Double Dagger -10.6 -12.4 87 34 25 16.1 100.62   -20 Snow
05:00 Legend Double Dagger -10.6 -12.5 86 35 27 16.1 100.61   -20 Snow
06:00 Legend Double Dagger -10.8 -13.0 84 34 30 16.1 100.60   -21 Snow
07:00 Legend Double Dagger -10.9 -13.3 83 34 34 16.1 100.55   -21 Snow
08:00 Legend Double Dagger -10.8 -13.2 83 34 33 24.1 100.57   -21 Snow,Blowing Snow
09:00 Legend Double Dagger -10.8 -13.2 83 34 35 24.1 100.53   -21 Snow,Blowing Snow
10:00 Legend Double Dagger -11.0 -13.3 83 34 40 24.1 100.51   -22 Snow,Blowing Snow
11:00 Legend Double Dagger -11.3 -13.8 82 35 41 24.1 100.50   -23 Snow,Blowing Snow
12:00 Legend Double Dagger -12.3 -14.8 82 34 42 24.1 100.52   -24 Snow,Blowing Snow
13:00 Legend Double Dagger -14.4 -17.1 80 34 39 24.1 100.52   -27 Blowing Snow
14:00 Legend Double Dagger -15.4 -18.1 80 34 38 24.1 100.52   -28 Blowing Snow
15:00 Legend Double Dagger -15.8 -18.5 80 35 40 24.1 100.51   -29 Blowing Snow
16:00 Legend Double Dagger -16.6 -19.3 80 35 37 24.1 100.52   -29 LegendNANA
17:00 Legend Double Dagger -17.4 -20.1 80 35 35 24.1 100.57   -30 Blowing Snow
18:00 Legend Double Dagger -17.8 -20.5 80 36 35 24.1 100.53   -30 Blowing Snow
19:00 Legend Double Dagger -18.0 -20.5 81 1 31 24.1 100.50   -30 Blowing Snow
20:00 Legend Double Dagger -17.8 -20.2 82 36 27 24.1 100.50   -29 Blowing Snow
21:00 Legend Double Dagger -18.8 -21.3 81 34 14 24.1 100.55   -27 Blowing Snow
22:00 Legend Double Dagger -19.5 -22.0 81 33 15 24.1 100.55   -28 LegendNANA
23:00 Legend Double Dagger -19.4 -21.9 81 35 17 24.1 100.53   -29 LegendNANA

Notes on Data Quality.

Legend

  • E = Estimated
  • M = Missing
  • NA = Not Available
  • ‡ = Partner data that is not subject to review by the National Climate Archives
Date modified: